Estación de Buin

Ultimos registro cada 15 minutos 26
Estación Fecha / Hora Temperatura Humedad Lluvia Velocidad Dirección Radiación Presion
26 Buin 06-05-2026 06:15 8,2 90 0 0 1 0 1015,4
25 Buin 06-05-2026 06:00 8,2 90 0 0 1 0 1015,4
24 Buin 06-05-2026 05:45 8,6 91 0 0 1 0 1015,2
23 Buin 06-05-2026 05:30 8,5 91 0 0 360 0 1015,2
22 Buin 06-05-2026 05:15 8,5 91 0 0,9 342 0 1014,7
21 Buin 06-05-2026 05:00 8,5 91 0 0,9 342 0 1014,7
20 Buin 06-05-2026 04:45 8,3 91 0 0,9 360 0 1014,4
19 Buin 06-05-2026 04:30 8,2 90 0 0 18 0 1014,4
18 Buin 06-05-2026 04:15 8,4 90 0 0 16 0 1014,6
17 Buin 06-05-2026 04:00 8,4 90 0 0 16 0 1014,6
16 Buin 06-05-2026 03:45 8,4 90 0 0 16 0 1014,9
15 Buin 06-05-2026 03:30 8,4 90 0 0 16 0 1014,6
14 Buin 06-05-2026 03:15 9 89 0 0 16 0 1014,5
13 Buin 06-05-2026 03:00 9 89 0 0 16 0 1014,5
12 Buin 06-05-2026 02:45 9,6 89 0 0 16 0 1014,5
11 Buin 06-05-2026 02:30 9,8 88 0 0 16 0 1014,5
10 Buin 06-05-2026 02:15 10,3 88 0 0 16 0 1014,8
9 Buin 06-05-2026 02:00 10,3 88 0 0 16 0 1014,8
8 Buin 06-05-2026 01:45 10,5 88 0 0 16 0 1014,9
7 Buin 06-05-2026 01:30 10,4 88 0 0 16 0 1015,1
6 Buin 06-05-2026 01:15 10,4 88 0 0 23 0 1015,2
5 Buin 06-05-2026 01:00 10,4 88 0 0 23 0 1015,2
4 Buin 06-05-2026 00:45 10,4 88 0 0 23 0 1015,2
3 Buin 06-05-2026 00:30 10,6 88 0 0 23 0 1015,3
2 Buin 06-05-2026 00:15 10,6 87 0 0 23 0 1015,6
1 Buin 06-05-2026 00:00 10,6 87 0 0 23 0 1015,6